Printer-friendly version
Follow the MPC on Twitter Follow the MPC on Facebook The MPC blog
Minor Planet Center

MPEC 2004-S28 : COMET C/2004 P1 (NEAT)

The following Minor Planet Electronic Circular may be linked-to from your own Web pages, but must not otherwise be redistributed electronically.

A form allowing access to any MPEC is at the bottom of this page.


Read MPEC 2004-S27 Read MPEC 2004-S29


M.P.E.C. 2004-S28                                Issued 2004 Sept. 20, 14:47 UT

     The Minor Planet Electronic Circulars contain information on unusual
         minor planets and routine data on comets.  They are published
   on behalf of Commission 20 of the International Astronomical Union by the
          Minor Planet Center, Smithsonian Astrophysical Observatory,
                          Cambridge, MA 02138, U.S.A.

                  Supported in part by the Brinson Foundation
             Prepared using the Tamkin Foundation Computer Network

                              MPC@CFA.HARVARD.EDU
          URL http://cfa-www.harvard.edu/iau/mpc.html  ISSN 1523-6714

                            COMET C/2004 P1 (NEAT)

Observations:
    CK04P010  C2004 09 13.86711 21 28 44.18 +12 32 22.8                 ES028246
    CK04P010  C2004 09 13.86796 21 28 44.14 +12 32 23.8                 ES028246
    CK04P010  C2004 09 13.86870 21 28 44.13 +12 32 22.8                 ES028246
    CK04P010  C2004 09 13.86935 21 28 44.11 +12 32 22.8                 ES028246
    CK04P010  C2004 09 13.87034 21 28 44.10 +12 32 22.9                 ES028246
    CK04P010  C2004 09 14.63210 21 28 31.86 +12 31 16.5                 ES028D74
    CK04P010  C2004 09 14.64461 21 28 31.57 +12 31 12.7                 ES028D74
    CK04P010  C2004 09 14.67097 21 28 31.22 +12 31 10.0          19.1 T ES028D74
    CK04P010  C2004 09 16.93894 21 27 56.12 +12 27 37.2          19.5 T ES028118
    CK04P010  C2004 09 16.95079 21 27 55.85 +12 27 35.9          19.8 T ES028118
    CK04P010  C2004 09 17.91171 21 27 41.79 +12 26 02.7          19.2 N ES028204
    CK04P010  C2004 09 17.93028 21 27 41.45 +12 26 00.1          19.4 N ES028204

Observer details:
118 Modra.  Observers S. Gajdos, J. Vilagi.  0.6-m f/5.5 reflector + CCD.
204 Schiaparelli Observatory.  Observer L. Buzzi.  0.60-m f/3.34 Newtonian
    reflector + CCD.
246 Klet Observatory-KLENOT.  Observer M. Tichy.  1.06-m KLENOT Telescope
    + CCD.
D74 Nakagawa.  Observers H. Hori, H. Maeno.  1.13-m f/6.75 reflector + CCD.

Orbital elements:
    C/2004 P1 (NEAT)
T 2003 Aug. 8.5311 TT                                   MPC
q   6.011147             (2000.0)            P               Q
                   Peri.   16.5494      +0.4767429      +0.7445624
                   Node   284.1765      -0.8512171      +0.2583390
e   1.0            Incl.   28.8128      -0.2194212      +0.6155386
From 100 observations 2004 Aug. 5-Sept. 17.

Brian G. Marsden             (C) Copyright 2004 MPC           M.P.E.C. 2004-S28

Read MPEC 2004-S27 Read MPEC 2004-S29


MPEC number:

Enter an MPEC number in one of the following forms:

  • 1997-B01 (the full form)
  • J97B01 (the packed version of the full form)
  • B01 (the abbreviated form)

Valid HTML 4.01!